Погода в Ханаке

Турция     41°13′59″N   42°50′46″E
темп.,
°C
ветер,
м/с
пор.,
м/с
влажн.,
%
обл.,
%
осадки,
мм/ч
давл.,
гПа
погр.,
м
11 мая, вт
вт1100:00−5всв11742 0.0 102315
03:00−5вюв11875 0.0 102226
06:00−4юв12755 0.0 1021136
09:00+4ююв22450 0.0 1015692
12:00+9ююз25360 0.0 10121502
15:00+12зюз58330 0.0 10092069
18:00+8сз346095 0.1 1011156
21:00+1с33863 0.1 101624
12 мая, ср
ср1200:000всв11870 0.0 101710
03:00−1в11910 0.0 101711
06:00+2в11870 0.0 101641
09:00+9ююв35540 0.0 1014674
12:00+14юз69310 0.0 10112251
15:00+15юз4932100 0.0 10112970
18:00+14ю1146100 0.0 101113
21:00+8в115635 0.0 101412
13 мая, чт
чт1300:00+5всв11650 0.0 101611
03:00+4всв11610 0.0 101611
06:00+6всв11600 0.0 101713
09:00+14ю35445 0.0 1015622
12:00+18ююз573112 0.0 10132982
15:00+18ю463296 0.0 10122815
18:00+11в236966 0.6 1016145
21:00+7в11835 1.6 101911
14 мая, пт
пт1400:00+6всв11805 0.6 101811
03:00+6в11790 0.6 101811
06:00+8в11753 0.0 101813
09:00+14юв24560 0.0 1016515
12:00+19ю34365 0.0 10142452
15:00+19ююз233284 0.0 10132563
18:00+17зсз115063 0.0 101327
21:00+9всв12784 0.6 101811
15 мая, сб
сб1500:00+7ссв118559 0.5 101911
03:00+7в11855 0.5 101811
06:00+9в11835 0.0 101822
09:00+15юв215946 0.0 1016559
12:00+19юв324066 0.1 10132333
15:00+13с6771100 1.1 1016438
18:00+13вюв346899 0.8 1016252
21:00+7юв019150 1.3 101811